Вернуться в каталог

O3BF04

АктивенСвязьMEO
NORAD 56367·PAYLOAD·🇱🇺 Luxembourg

Запущен Apr 28, 2023 с Cape Canaveral Space Force Station

Loading…

Ближайшие Пролёты (ближайшие 24 часа)

TLE

СвежийSource: CelesTrak SupGP

Эпоха: Sep 13, 2026, 13:59 UTC

1 56367C 23059A   26256.58333333  .00000000  00000+0  00000+0 0  2562
2 56367   0.0602 343.3834 0007709 186.2940 293.5163  5.00115094    13

Отслеживайте O3BF04 в реальном времени с AllMySat

Download on the App Store